Weather History for St. Joseph, MO

Change the Weather History Date:

Tuesday, July 9, 2013

  Actual Average Record
Temperature  
Mean Temperature 88 °F 77 °F  
Max Temperature 100 °F 87 °F 102 °F (1980)
Min Temperature 75 °F 67 °F 57 °F (1953)
Degree Days  
Heating Degree Days 0 0  
Month to date heating degree days 0 0  
Since 1 June heating degree days 15 8  
Since 1 July heating degree days 0 0  
Cooling Degree Days 23 12  
Month to date cooling degree days 109 106  
Year to date cooling degree days 510 486  
Since 1 June cooling degree days 384 373  
Growing Degree Days 37 (Base 50)    
Moisture  
Dew Point 72 °F    
Average Humidity 65    
Maximum Humidity 87    
Minimum Humidity 42    
Precipitation  
Precipitation 0.00 in 0.14 in 1.67 in (1950)
Month to date precipitation 0.06 1.31  
Year to date precipitation 16.20 18.44  
Sea Level Pressure  
Sea Level Pressure 29.89 in    
Wind  
Wind Speed 7 mph (South)    
Max Wind Speed 18 mph    
Max Gust Speed 22 mph    
Visibility 10 miles    
Events Rain , Thunderstorm    
T = Trace of Precipitation, MM = Missing Value Source: NWS Daily Summary

Daily Weather History Graph

Daily Weather History Graph

Search for Another Location

Airport:

Trip Planner

Search our weather history database for the weather conditions in past years. The results will help you decide how hot, cold, wet, or windy it might be!

Date:

Astronomy

Jul. 09, 2013 Rise Set
Actual Time 6:00 AM CDT 8:49 PM CDT
Civil Twilight 5:27 AM CDT 9:21 PM CDT
Nautical Twilight 4:47 AM CDT 10:01 PM CDT
Astronomical Twilight 4:01 AM CDT 10:47 PM CDT
Moon 7:24 AM CDT (7/9) 9:27 PM CDT (7/9)
Length of Visible Light 15h 53m
Length of Day
14h 49m
New Moon, 2% of the Moon is Illuminated
Jul 9
New Moon
Jul 15
First Quarter
Jul 22
Full
Jul 29
Last Quarter
Aug 6
New

Hourly Weather History & Observations

Time (CDT) Temp. Heat Index Dew Point Humidity Pressure Visibility Wind Dir Wind Speed Gust Speed Precip Events Conditions
12:53 AM 82.0 °F 84.9 °F 68.0 °F 62% 29.92 in 10.0 mi South 11.5 mph - N/A   Clear
1:53 AM 81.0 °F 83.8 °F 68.0 °F 65% 29.94 in 10.0 mi South 5.8 mph - N/A   Clear
2:53 AM 78.1 °F - 68.0 °F 71% 29.94 in 10.0 mi South 5.8 mph - N/A   Clear
3:53 AM 75.9 °F - 68.0 °F 76% 29.92 in 10.0 mi South 8.1 mph - N/A   Clear
4:53 AM 75.9 °F - 69.1 °F 79% 29.94 in 10.0 mi SSW 4.6 mph - N/A   Clear
5:53 AM 77.0 °F - 69.1 °F 76% 29.99 in 10.0 mi Calm Calm - N/A   Scattered Clouds
6:53 AM 75.9 °F - 71.1 °F 85% 29.94 in 10.0 mi SSE 9.2 mph - 0.00 in   Partly Cloudy
7:53 AM 79.0 °F - 70.0 °F 74% 29.91 in 10.0 mi SSE 10.4 mph - 0.00 in Rain Light Rain
8:53 AM 80.1 °F 83.6 °F 71.1 °F 74% 29.92 in 10.0 mi South 9.2 mph - 0.00 in   Scattered Clouds
9:24 AM 78.8 °F - 71.6 °F 78% 29.96 in 9.0 mi South 8.1 mph - 0.00 in Rain , Thunderstorm Light Thunderstorms and Rain
9:39 AM 80.6 °F 84.6 °F 71.6 °F 74% 29.95 in 10.0 mi South 10.4 mph - 0.00 in   Clear
9:53 AM 81.0 °F 85.2 °F 72.0 °F 74% 29.92 in 10.0 mi South 5.8 mph - 0.00 in   Clear
10:53 AM 84.0 °F 90.2 °F 73.0 °F 69% 29.92 in 10.0 mi South 6.9 mph - 0.00 in Rain Light Rain
11:53 AM 87.1 °F 94.5 °F 73.0 °F 63% 29.92 in 10.0 mi South 9.2 mph - 0.00 in   Clear
12:53 PM 91.0 °F 99.3 °F 73.0 °F 55% 29.89 in 10.0 mi South 15.0 mph - N/A   Clear
1:53 PM 93.9 °F 103.4 °F 73.0 °F 51% 29.88 in 10.0 mi SSW 12.7 mph - N/A   Clear
2:53 PM 97.0 °F 107.0 °F 73.0 °F 46% 29.86 in 10.0 mi SW 10.4 mph - N/A   Clear
3:53 PM 99.0 °F 107.0 °F 71.1 °F 40% 29.84 in 10.0 mi SW 13.8 mph - N/A   Clear
4:53 PM 99.0 °F 107.0 °F 71.1 °F 40% 29.83 in 10.0 mi SW 11.5 mph - N/A   Clear
5:53 PM 98.1 °F 109.5 °F 73.9 °F 46% 29.82 in 10.0 mi SSW 5.8 mph - N/A   Mostly Cloudy
6:53 PM 93.9 °F 109.9 °F 78.1 °F 60% 29.82 in 10.0 mi North 8.1 mph - N/A   Clear
7:53 PM 91.9 °F 107.3 °F 78.1 °F 64% 29.82 in 10.0 mi ENE 4.6 mph - N/A   Clear
8:53 PM 88.0 °F 94.7 °F 72.0 °F 59% 29.84 in 10.0 mi Calm Calm - N/A   Clear
9:53 PM 86.0 °F 95.1 °F 75.0 °F 70% 29.85 in 10.0 mi NNE 3.5 mph - N/A   Clear
10:53 PM 84.0 °F 93.7 °F 77.0 °F 79% 29.86 in 10.0 mi North 3.5 mph - N/A   Clear
11:53 PM 82.9 °F 91.8 °F 77.0 °F 82% 29.87 in 10.0 mi Calm Calm - N/A   Clear